Deep River, CT

4:07 PM EDT on July 24, 2016 (GMT -0400)
Chester

Weather History for KSNC - May, 2013

Change the Weather History Date:

Saturday, May 4, 2013

  Actual Average (KHVN) Record (KHVN)
Temperature  
Mean Temperature 52 °F -  
Max Temperature 64 °F 62 °F 84 °F (2001)
Min Temperature 39 °F 46 °F 34 °F (1985)
Degree Days  
Heating Degree Days 12    
Growing Degree Days 2 (Base 50)    
Moisture  
Dew Point 40 °F    
Average Humidity 68    
Maximum Humidity 100    
Minimum Humidity 37    
Precipitation  
Precipitation 0.00 in - - ()
Sea Level Pressure  
Sea Level Pressure 30.31 in    
Wind  
Wind Speed 6 mph (East)    
Max Wind Speed 14 mph    
Max Gust Speed 21 mph    
Visibility 9 miles    
Events      
Averages and records for this station are not official NWS values.
T = Trace of Precipitation, MM = Missing Value Source: NWS Daily Summary

Daily Weather History Graph

Daily Weather History Graph

Search for Another Location

Airport or City:

Trip Planner

Search our weather history database for the weather conditions in past years. The results will help you decide how hot, cold, wet, or windy it might be!

Date:

Astronomy

May. 04, 2013 Rise Set
Actual Time 5:43 AM EDT 7:51 PM EDT
Civil Twilight 5:12 AM EDT 8:21 PM EDT
Nautical Twilight 4:35 AM EDT 8:58 PM EDT
Astronomical Twilight 3:54 AM EDT 9:39 PM EDT
Moon 2:43 AM EDT (5/4) 2:42 PM EDT (5/4)
Length of Visible Light 15h 08m
Length of Day
14h 07m
Waning Crescent, 27% of the Moon is Illuminated
May 4
Waning Crescent
May 9
New
May 18
First Quarter
May 25
Full
May 31
Last Quarter

Hourly Weather History & Observations

Time (EDT) Temp. Windchill Dew Point Humidity Pressure Visibility Wind Dir Wind Speed Gust Speed Precip Events Conditions
12:15 AM 44.6 °F 42.2 °F 42.8 °F 93% 30.36 in 10.0 mi NNW 4.6 mph - N/A   Clear
12:35 AM 46.4 °F 44.3 °F 44.6 °F 93% 30.36 in 10.0 mi NNW 4.6 mph - N/A   Clear
12:55 AM 46.4 °F 44.3 °F 42.8 °F 87% 30.35 in 10.0 mi North 4.6 mph - N/A   Clear
1:15 AM 46.4 °F 45.2 °F 42.8 °F 87% 30.34 in 10.0 mi North 3.5 mph - N/A   Clear
1:35 AM 46.4 °F 43.5 °F 42.8 °F 87% 30.34 in 10.0 mi North 5.8 mph - N/A   Clear
1:55 AM 46.4 °F 43.5 °F 42.8 °F 87% 30.33 in 10.0 mi North 5.8 mph - N/A   Clear
2:15 AM 46.4 °F 44.3 °F 42.8 °F 87% 30.32 in 10.0 mi North 4.6 mph - N/A   Clear
2:35 AM 46.4 °F 43.5 °F 42.8 °F 87% 30.32 in 10.0 mi North 5.8 mph - N/A   Clear
2:55 AM 46.4 °F 43.5 °F 42.8 °F 87% 30.31 in 10.0 mi North 5.8 mph - N/A   Clear
3:15 AM 46.4 °F 43.5 °F 42.8 °F 87% 30.31 in 10.0 mi North 5.8 mph - N/A   Clear
3:35 AM 46.4 °F 44.3 °F 42.8 °F 87% 30.31 in 10.0 mi North 4.6 mph - N/A   Clear
3:55 AM 46.4 °F 44.3 °F 41.0 °F 81% 30.31 in 10.0 mi North 4.6 mph - N/A   Clear
4:15 AM 46.4 °F 44.3 °F 41.0 °F 81% 30.32 in 10.0 mi North 4.6 mph - N/A   Clear
4:35 AM 46.4 °F 45.2 °F 39.2 °F 76% 30.32 in 10.0 mi North 3.5 mph - N/A   Clear
4:55 AM 46.4 °F 44.3 °F 39.2 °F 76% 30.32 in 10.0 mi NNE 4.6 mph - N/A   Clear
5:15 AM 46.4 °F 45.2 °F 39.2 °F 76% 30.32 in 10.0 mi North 3.5 mph - N/A   Clear
5:35 AM 46.4 °F 44.3 °F 39.2 °F 76% 30.32 in 10.0 mi NNE 4.6 mph - N/A   Clear
5:55 AM 48.2 °F - 39.2 °F 71% 30.32 in 10.0 mi NNE 4.6 mph - N/A   Clear
6:15 AM 48.2 °F - 39.2 °F 71% 30.32 in 10.0 mi NE 4.6 mph - N/A   Clear
6:35 AM 50.0 °F - 39.2 °F 66% 30.32 in 10.0 mi NE 5.8 mph - N/A   Clear
6:55 AM 51.8 °F - 39.2 °F 62% 30.32 in 10.0 mi NE 5.8 mph - N/A   Clear
7:15 AM 53.6 °F - 39.2 °F 58% 30.33 in 10.0 mi NNE 6.9 mph - N/A   Clear
7:35 AM 53.6 °F - 39.2 °F 58% 30.33 in 10.0 mi NE 8.1 mph - N/A   Clear
7:55 AM 55.4 °F - 39.2 °F 54% 30.32 in 10.0 mi NE 5.8 mph - N/A   Clear
8:15 AM 55.4 °F - 39.2 °F 54% 30.33 in 10.0 mi NE 6.9 mph - N/A   Clear
8:35 AM 57.2 °F - 37.4 °F 48% 30.32 in 10.0 mi NE 9.2 mph - N/A   Clear
8:55 AM 57.2 °F - 37.4 °F 48% 30.32 in 10.0 mi NNE 8.1 mph - N/A   Clear
9:15 AM 59.0 °F - 37.4 °F 45% 30.32 in 10.0 mi NNE 9.2 mph - N/A   Clear
9:35 AM 60.8 °F - 37.4 °F 42% 30.32 in 10.0 mi ENE 10.4 mph - N/A   Clear
9:55 AM 60.8 °F - 37.4 °F 42% 30.31 in 10.0 mi ENE 8.1 mph - N/A   Clear
10:15 AM 62.6 °F - 39.2 °F 42% 30.30 in 10.0 mi ENE 11.5 mph 19.6 mph N/A   Clear
10:35 AM 62.6 °F - 39.2 °F 42% 30.30 in 9.0 mi NE 6.9 mph 16.1 mph N/A   Clear
10:55 AM 64.4 °F - 39.2 °F 40% 30.30 in 10.0 mi NE 10.4 mph 16.1 mph N/A   Clear
11:15 AM 64.4 °F - 37.4 °F 37% 30.29 in 10.0 mi NE 9.2 mph 19.6 mph N/A   Clear
11:35 AM 64.4 °F - 37.4 °F 37% 30.29 in 10.0 mi NE 13.8 mph 20.7 mph N/A   Clear
11:55 AM 64.4 °F - 42.8 °F 45% 30.29 in 10.0 mi SE 10.4 mph - N/A   Clear
12:15 PM 62.6 °F - 42.8 °F 48% 30.28 in 10.0 mi SSE 10.4 mph - N/A   Clear
12:35 PM 62.6 °F - 42.8 °F 48% 30.28 in 10.0 mi ESE 9.2 mph - N/A   Clear
12:55 PM 60.8 °F - 42.8 °F 52% 30.29 in 10.0 mi SSE 6.9 mph - N/A   Clear
1:15 PM 60.8 °F - 42.8 °F 52% 30.29 in 10.0 mi South 11.5 mph - N/A   Clear
1:35 PM 60.8 °F - 42.8 °F 52% 30.29 in 9.0 mi South 8.1 mph - N/A   Clear
1:55 PM 57.2 °F - 41.0 °F 55% 30.28 in 9.0 mi SSE 10.4 mph - N/A   Clear
2:15 PM 57.2 °F - 41.0 °F 55% 30.28 in 10.0 mi South 12.7 mph - N/A   Clear
2:35 PM 57.2 °F - 41.0 °F 55% 30.28 in 9.0 mi SE 11.5 mph 18.4 mph N/A   Clear
2:55 PM 55.4 °F - 39.2 °F 54% 30.28 in 9.0 mi SE 10.4 mph - N/A   Clear
3:15 PM 57.2 °F - 39.2 °F 51% 30.28 in 9.0 mi SE 10.4 mph - N/A   Clear
3:35 PM 57.2 °F - 37.4 °F 48% 30.28 in 10.0 mi SSE 9.2 mph - N/A   Clear
3:55 PM 55.4 °F - 37.4 °F 51% 30.27 in 10.0 mi SSE 8.1 mph - N/A   Clear
4:15 PM 55.4 °F - 37.4 °F 51% 30.28 in 9.0 mi SSE 11.5 mph - N/A   Clear
4:35 PM 55.4 °F - 37.4 °F 51% 30.28 in 10.0 mi SSE 8.1 mph - N/A   Clear
4:55 PM 53.6 °F - 37.4 °F 54% 30.28 in 9.0 mi SSE 8.1 mph - N/A   Clear
5:15 PM 53.6 °F - 37.4 °F 54% 30.28 in 9.0 mi SSE 9.2 mph - N/A   Clear
5:35 PM 53.6 °F - 37.4 °F 54% 30.28 in 9.0 mi SSE 9.2 mph - N/A   Clear
5:55 PM 51.8 °F - 37.4 °F 58% 30.28 in 10.0 mi South 10.4 mph - N/A   Clear
6:15 PM 51.8 °F - 39.2 °F 62% 30.28 in 10.0 mi SE 9.2 mph - N/A   Clear
6:35 PM 50.0 °F - 39.2 °F 66% 30.29 in 9.0 mi SSE 6.9 mph - N/A   Clear
6:55 PM 48.2 °F - 39.2 °F 71% 30.29 in 9.0 mi SSE 5.8 mph - N/A   Clear
7:15 PM 46.4 °F 44.3 °F 39.2 °F 76% 30.30 in 8.0 mi SSE 4.6 mph - N/A   Clear
7:35 PM 46.4 °F 44.3 °F 41.0 °F 81% 30.30 in 8.0 mi SSE 4.6 mph - N/A   Clear
7:55 PM 46.4 °F 44.3 °F 41.0 °F 81% 30.30 in 9.0 mi South 4.6 mph - N/A   Clear
8:15 PM 46.4 °F 44.3 °F 42.8 °F 87% 30.31 in 8.0 mi South 4.6 mph - N/A   Clear
8:35 PM 44.6 °F 43.1 °F 42.8 °F 93% 30.31 in 9.0 mi South 3.5 mph - N/A   Clear
8:55 PM 44.6 °F 43.1 °F 41.0 °F 87% 30.31 in 9.0 mi SW 3.5 mph - N/A   Clear
9:15 PM 44.6 °F - 41.0 °F 87% 30.31 in 9.0 mi Calm Calm - N/A   Clear
9:35 PM 42.8 °F - 41.0 °F 93% 30.31 in 8.0 mi Calm Calm - N/A   Clear
9:55 PM 42.8 °F 41.1 °F 41.0 °F 93% 30.31 in 8.0 mi WSW 3.5 mph - N/A   Clear
10:15 PM 42.8 °F - 39.2 °F 87% 30.31 in 9.0 mi Calm Calm - N/A   Clear
10:35 PM 42.8 °F - 39.2 °F 87% 30.31 in 7.0 mi Calm Calm - N/A   Clear
10:55 PM 41.0 °F - 39.2 °F 93% 30.31 in 8.0 mi Calm Calm - N/A   Clear
11:15 PM 41.0 °F - 39.2 °F 93% 30.31 in 8.0 mi Calm Calm - N/A   Clear
11:35 PM 41.0 °F - 39.2 °F 93% 30.31 in 7.0 mi Calm Calm - N/A   Clear
11:55 PM 39.2 °F - 39.2 °F 100% 30.31 in 7.0 mi Calm Calm - N/A   Clear